User: anonymous   Login
Location: Edinburgh
(55.9500°N, 3.1600°W)
Time: 01:50:09
(UTC+01:00)
Language:

AO-27 - Orbit

View from above orbital plane
View from above orbital plane
View from above satellite
View from above satellite

Ground track
Ground track

The orbit data is extracted from the following two-line orbital elements,

1 22825U 93061C   24144.07758927  .00000333  00000-0  14506-3 0  9996
2 22825  98.7899 196.5887 0009075 146.4879 213.6879 14.30492021599022
Epoch (UTC): 23 May 2024 01:51:43
Eccentricity: 0.0009075
inclination: 98.7899°
perigee height: 783 km
apogee height: 796 km
right ascension of ascending node: 196.5887°
argument of perigee: 146.4879°
revolutions per day: 14.30492021
mean anomaly at epoch: 213.6879°
orbit number at epoch: 59902

The dashed part of the orbit path shows where the satellite is in the earth's shadow,  

DLR